Regional Weather Roundup
Issued by NWS Green Bay, WI

Home | Current Version | Previous Version | Graphics & Text | Print | Product List | Glossary Off
Versions: 1 2 3 4 5 6 7 8 9 10 11 12 13 14 15 16 17 18 19 20 21 22 23 24 25 26 27 28 29 30 31 32 33 34 35 36 37 38 39 40 41 42 43 44 45 46 47 48 49 50

000
ASUS43 KGRB 280301
RWRGRB

NORTH-CENTRAL AND NORTHEAST WISCONSIN REGIONAL WEATHER ROUNDUP
NATIONAL WEATHER SERVICE GREEN BAY WI
1000 PM CDT THU JUL 27 2017

WIZ005-009-010>012-018-019-280400-
NORTH CENTRAL WISCONSIN

CITY           SKY/WX    TMP DP  RH WIND       PRES   REMARKS
IRONWOOD       CLEAR     61  59  93 CALM      30.08S
MANITOWISH WTR CLEAR     61  60  97 CALM      30.09R
ARBOR VITAE    NOT AVBL
EAGLE RIVER    NOT AVBL
LAND O LAKES   CLEAR     57  55  91 CALM      30.11S
RHINELANDER    CLOUDY    67  57  70 E3        30.09R
PHILLIPS       CLEAR     65  61  87 N3        30.08R
ANTIGO         CLOUDY    66  59  76 E5        30.07R
TOMAHAWK       NOT AVBL
MERRILL        NOT AVBL
$$

WIZ013-073-280400-
NORTHEAST WISCONSIN

CITY           SKY/WX    TMP DP  RH WIND       PRES   REMARKS
IRON MOUNTAIN  NOT AVBL
MARINETTE      CLEAR     65  53  65 N6        30.04R
$$

WIZ017-030-035>037-045-280400-
CENTRAL WISCONSIN

CITY           SKY/WX    TMP DP  RH WIND       PRES   REMARKS
MEDFORD        NOT AVBL
WAUSAU         PTCLDY    68  61  78 CALM      30.03R
MOSINEE        MOCLDY    66  63  88 NE3       30.05R
MARSHFIELD     MOCLDY    71  60  68 NE6       30.03R
WISC RAPIDS    PTCLDY    68  61  78 CALM      30.03R
STEVENS POINT  NOT AVBL
WAUPACA        NOT AVBL
SHAWANO        CLOUDY    71  58  63 E3        30.04R
CLINTONVILLE   PTCLDY   N/A N/A N/A E7        30.03R
WAUTOMA        PTCLDY    66  61  84 CALM      30.02R
$$

WIZ038-039-048-051-280400-
FOX VALLEY

CITY           SKY/WX    TMP DP  RH WIND       PRES   REMARKS
NWS GREEN BAY  PTCLDY    68  59  73 E6        30.02R
APPLETON       MOCLDY    72  55  56 E8        30.01R
OSHKOSH        CLEAR     72  58  61 E6        30.01R
FOND DU LAC    PTCLDY    70  56  61 E6        30.01R
$$

WIZ022-050-052-280400-
EAST CENTRAL WISCONSIN

CITY           SKY/WX    TMP DP  RH WIND       PRES   REMARKS
EPHRAIM        FAIR      64  54  69 NE6       30.03R
WASHINGTON ISL MOCLDY    63  54  71 NE10      30.02S
STURGEON BAY     N/A     65  54  67 N7        30.03S
MANITOWOC      NOT AVBL
SHEBOYGAN      PTCLDY    65  60  84 N6        30.00S
$$

LMZ563-521-522-541>543-280400-
LAKESHORE

STATION/POSITION TIME  TEMP    WIND        PRES    VSBY  WAVE
                       AIR SEA DIR/SP/G                  HT/PER
                 (UTC) (F)     (DEG/KT/KT) (MB)    (MI)  (FT/S)
SHEBOYGAN LKSHOR 0200   69      10/ 10/ 11 1015.2S
KEWAUNEE LKSHORE 0230   68      40/  9/ 12 1015.7R
NORTHPORT PIER   0240   67     360/  9/ 11 1016.6R
N MID LAKE BUOY  0150   67 66   10/ 14/ 17 1016.5S         2/ 4
S GREEN BAY BUOY 0230   71 72   70/ 17/ 23 1016.1R
SISTER BAY LKSHO 0217   67      30/  5/  7   N/A
CHAMBERS ISLAND  0240   69      10/ 15/ 17 1016.3R
MENOMINEE LKSHOR 0230   70      10/ 13/ 17 1016.5R
$$



USA.gov is the U.S. government's official web portal to all federal, state and local government web resources and services.